sat.trackr.live / text

‹ back to catalog

STARLINK-5665

NORAD 55361 · 2023-013AG

PAYLOAD ACTIVE UNKNOWN

§ Identity

Operator
Country
US
Launch date
2023-01-26
Launch site
AFETR
Launch vehicle
Mass (kg)
RCS (m²)

Purposes: comms

External: N2YO · Heavens-Above · Gunter

§ Orbital elements

Epoch: 2026-09-20T00:17:42.790848Z

Period
94.27 min
Inclination
43.0048°
Eccentricity
0.0001657
Mean motion
15.27567038 rev/d
Perigee alt
482.0 km
Apogee alt
484.2 km
Semi-major
6,861.2 km
B*
-2.2956e-5
RAAN
271.1690°
Arg perigee
277.1573°
Mean anomaly
82.9090°
Rev number
20,156

§ Raw data

STARLINK-56651 55361U 23013AG  26263.01230082 -.00000894  00000+0 -22956-4 0  99942 55361  43.0048 271.1690 0001657 277.1573  82.9090 15.27567038201564

JSON: /api/v1/satellites/55361 · /tle

For live sub-satellite position, see the globe view (requires WebGL).

§ Visibility from observer

Set your observer location to see the next 7 days of passes ≥ 10°. The values pass through the URL so the page stays shareable.

No JS? Fill the form by hand. The geolocation button needs JavaScript.